Starlink 2336

operational
NORAD ID: 47879 Int'l Des: 2021-021 Owner: SPXS Country: US Constellation: starlink
LEOCIRCULARSTARLINK_TYPE

Starlink 2336について

説明を読み込み中...

リアルタイム位置

3D地球を読み込み中...

次回通過

高度履歴

Altitude vs Time

uPlot chart will show altitude changes over time

軌道要素

1 47879U 21021V 25257.60366556 .00005678 00000-0 39959-3 0 9993
2 47879 53.0551 357.1005 0001284 88.3135 271.8001 15.06415971249610
Epoch: Sep 14, 2025 • Age: 21 hours

現在のステータス

高度 554.4 km
速度 7.58 km/s
衛星直下点 -23.83°S, 173.48°E
打ち上げ日 Mar 14, 2021
運用期間 4.5 years
タイプ internet

技術仕様

分類 Payload
質量 260.00 kg
乾燥質量 248.00 kg
総質量 260.00 kg
長さ 0.20 m
直径 2.80 m
スパン 9.00 m
形状 Box + pan
製造者 SPXS
バスタイプ Starlink
フェーズステータス In Orbit
所有者/国 SPXS/US

大規模コンステレーション

Loading constellations...